Location: Unspecified
(64.9000°N, 0.0000°E)
Time: 20:17:05
(UTC+00:00)

Altair - Pass Details

Date: 19 June 2019
Orbit: 1501 x 1683 km, 47.2° (Epoch: 15 July)

Event Time Altitude Azimuth Distance (km) Brightness Sun altitude
Rises 19:47:24 0° 187° (S) 4,748 9.8 10.7°
Reaches altitude 10° 19:52:24 10° 165° (SSE) 3,806 9.2 10.3°
Maximum altitude 19:56:52 14° 137° (SE) 3,510 8.8 9.9°
Drops below altitude 10° 20:01:23 10° 109° (ESE) 3,878 9.1 9.5°
Sets 20:06:34 0° 88° (E) 4,900 9.7 9.1°
